Indianapolis, IN

12:41 AM EST on February 28, 2017 (GMT -0500)
Indianapolis International

Weather History for KIND - February, 2013

Change the Weather History Date:

Thursday, February 14, 2013

  Actual Average Record
Temperature  
Mean Temperature 41 °F 32 °F  
Max Temperature 50 °F 40 °F 65 °F (1954)
Min Temperature 31 °F 24 °F -14 °F (1905)
Degree Days  
Heating Degree Days 24 33  
Month to date heating degree days 468 488  
Since 1 July heating degree days 3532 3709  
Cooling Degree Days 0 0  
Month to date cooling degree days 0 0  
Year to date cooling degree days 0 0  
Moisture  
Dew Point 32 °F    
Average Humidity 78    
Maximum Humidity 100    
Minimum Humidity 56    
Precipitation  
Precipitation 0.00 in 0.09 in 1.37 in (1908)
Month to date precipitation 0.30 1.15  
Year to date precipitation 5.81 3.81  
Snow  
Snow 0.00 in 0.30 in 5.50 in (2014)
Month to date snowfall 1.5 3.7  
Since 1 July snowfall 18.9 20.3  
Snow Depth 0.00 in    
Sea Level Pressure  
Sea Level Pressure 29.87 in    
Wind  
Wind Speed 13 mph (SW)    
Max Wind Speed 25 mph    
Max Gust Speed 31 mph    
Visibility 8 miles    
Events      
T = Trace of Precipitation, MM = Missing Value Source: NWS Daily Summary

Daily Weather History Graph

Daily Weather History Graph

Search for Another Location

Airport or City:

Trip Planner

Search our weather history database for the weather conditions in past years. The results will help you decide how hot, cold, wet, or windy it might be!

Date:

Astronomy

Feb. 14, 2013 Rise Set
Actual Time 7:38 AM EST 6:20 PM EST
Civil Twilight 7:10 AM EST 6:48 PM EST
Nautical Twilight 6:39 AM EST 7:19 PM EST
Astronomical Twilight 6:07 AM EST 7:51 PM EST
Moon 9:41 AM EST (2/14) 11:21 PM EST (2/14)
Length of Visible Light 11h 37m
Length of Day
10h 42m
Waxing Crescent, 21% of the Moon is Illuminated
Feb 14
Waxing Crescent
Feb 17
First Quarter
Feb 25
Full
Mar 4
Last Quarter
Mar 11
New

Hourly Weather History & Observations

Time (EST) Temp. Windchill Dew Point Humidity Pressure Visibility Wind Dir Wind Speed Gust Speed Precip Events Conditions
12:54 AM 33.1 °F 25.5 °F 28.9 °F 85% 29.86 in 10.0 mi SSW 9.2 mph - N/A   Clear
1:54 AM 32.0 °F 24.2 °F 30.0 °F 92% 29.85 in 8.0 mi SSW 9.2 mph - N/A   Clear
2:54 AM 32.0 °F 24.2 °F 30.0 °F 92% 29.85 in 7.0 mi SSW 9.2 mph - N/A   Scattered Clouds
3:05 AM 32.0 °F 24.8 °F 30.2 °F 93% 29.83 in 7.0 mi SSW 8.1 mph - N/A   Mostly Cloudy
3:21 AM 30.2 °F 21.9 °F 30.2 °F 100% 29.83 in 6.0 mi SSW 9.2 mph - N/A   Scattered Clouds
3:54 AM 32.0 °F 24.8 °F 30.9 °F 96% 29.84 in 6.0 mi SSW 8.1 mph - N/A   Mostly Cloudy
4:45 AM 32.0 °F 24.2 °F 30.2 °F 93% 29.81 in 6.0 mi SSW 9.2 mph - N/A   Scattered Clouds
4:54 AM 32.0 °F 24.8 °F 30.9 °F 96% 29.83 in 6.0 mi SW 8.1 mph - N/A   Scattered Clouds
5:54 AM 33.1 °F 26.9 °F 32.0 °F 96% 29.83 in 5.0 mi South 6.9 mph - N/A   Overcast
6:37 AM 33.8 °F 27.0 °F 33.8 °F 100% 29.82 in 5.0 mi SSW 8.1 mph - N/A   Overcast
6:54 AM 34.0 °F 27.2 °F 33.1 °F 96% 29.83 in 6.0 mi South 8.1 mph - N/A   Overcast
7:54 AM 35.1 °F 27.4 °F 34.0 °F 96% 29.84 in 5.0 mi South 10.4 mph - N/A   Overcast
8:49 AM 35.6 °F 28.0 °F 33.8 °F 93% 29.82 in 6.0 mi SSW 10.4 mph - N/A   Mostly Cloudy
8:54 AM 36.0 °F 28.0 °F 34.0 °F 93% 29.84 in 6.0 mi South 11.5 mph - N/A   Mostly Cloudy
9:54 AM 37.0 °F 28.1 °F 34.0 °F 89% 29.84 in 10.0 mi South 15.0 mph - N/A   Scattered Clouds
10:54 AM 42.1 °F 34.2 °F 35.1 °F 76% 29.83 in 10.0 mi SSW 16.1 mph - N/A   Scattered Clouds
11:54 AM 46.9 °F - 35.1 °F 63% 29.84 in 10.0 mi SW 23.0 mph 28.8 mph N/A   Mostly Cloudy
12:07 PM 44.6 °F 36.6 °F 33.8 °F 66% 29.82 in 10.0 mi SW 19.6 mph 28.8 mph N/A   Mostly Cloudy
12:48 PM 44.6 °F 36.4 °F 33.8 °F 66% 29.81 in 10.0 mi WSW 20.7 mph - N/A   Scattered Clouds
12:54 PM 45.0 °F 37.9 °F 34.0 °F 65% 29.83 in 10.0 mi WSW 16.1 mph - N/A   Scattered Clouds
1:54 PM 46.9 °F - 35.1 °F 63% 29.81 in 10.0 mi WSW 16.1 mph - N/A   Scattered Clouds
2:54 PM 46.9 °F - 35.1 °F 63% 29.82 in 10.0 mi WSW 19.6 mph 23.0 mph N/A   Mostly Cloudy
3:54 PM 48.0 °F - 34.0 °F 58% 29.84 in 10.0 mi West 20.7 mph 31.1 mph N/A   Mostly Cloudy
4:54 PM 46.9 °F - 34.0 °F 61% 29.87 in 10.0 mi WNW 19.6 mph - N/A   Scattered Clouds
5:54 PM 43.0 °F 35.4 °F 30.9 °F 62% 29.91 in 10.0 mi WNW 16.1 mph - N/A   Scattered Clouds
6:54 PM 39.0 °F 31.0 °F 30.9 °F 73% 29.95 in 10.0 mi WNW 13.8 mph 21.9 mph N/A   Scattered Clouds
7:54 PM 37.9 °F 30.9 °F 28.9 °F 70% 29.98 in 10.0 mi WNW 10.4 mph - N/A   Partly Cloudy
8:54 PM 37.9 °F 30.0 °F 28.9 °F 70% 29.99 in 10.0 mi WNW 12.7 mph - N/A   Mostly Cloudy
9:54 PM 36.0 °F 28.0 °F 28.0 °F 73% 30.01 in 10.0 mi WNW 11.5 mph - N/A   Mostly Cloudy
10:54 PM 33.1 °F 25.5 °F 27.0 °F 78% 30.01 in 10.0 mi West 9.2 mph - N/A   Scattered Clouds
11:54 PM 32.0 °F 26.4 °F 26.1 °F 79% 30.00 in 10.0 mi WSW 5.8 mph - N/A   Scattered Clouds